Location: Champs
(48.8539°N, 2.6040°E)
Time: 13:19:55
(UTC+00:00)

Cosmos 2333 - Pass Details

Date: 26 October 2021
Orbit: 829 x 866 km, 70.9° (Epoch: 07 December)

Event Time Altitude Azimuth Distance (km) Brightness Sun altitude
Exits shadow 04:12:41 17° 330° (NNW) 2,071 6.0 -22.6°
Maximum altitude 04:17:17 82° 244° (WSW) 879 4.1 -21.9°
Drops below altitude 10° 04:23:04 10° 158° (SSE) 2,503 6.9 -21.0°
Sets 04:25:31 0° 157° (SSE) 3,437 7.6 -20.6°
